Flag for U.S.A. Weather past 2 weeks in Salinas, California, U.S.A.

Now
57 °F

Passing clouds.


Feels Like: 57 °F
Forecast: 50 / 62 °F
Wind: 5 mph from West

Location: Salinas Municipal Airport

Current Time: Apr 25, 2015 at 12:16:39 AM

Latest Report: Apr 24, 2015 at 10:53 PM


Visibility: 10 mi

Pressure: 30.08 "Hg

Humidity: 64%

Dew point: 45 °F

Location of SalinasLocation

Historic Weather in Salinas — Graph

°F

Salinas temperature yesterday

Maximum temperature yesterday: 65 °F (at 2:53 PM)
Minimum temperature yesterday: 55 °F (at 3:53 AM)
Average temperature yesterday: 59 °F

Past Weeks' High & Low Weather Summary

 TemperatureHumidityPressure
High82 °F (Apr 17, 12:53 PM)86% (Apr 18, 12:53 AM)30.34 "Hg (Apr 18, 12:53 AM)
Low43 °F (Apr 11, 6:53 AM)13% (Apr 16, 1:53 PM)29.89 "Hg (Apr 20, 6:53 PM)
Average58 °F61%30.04 "Hg
* Reported Apr 9 10:53 PM — Apr 24 10:53 PM, Salinas, Weather by CustomWeather, © 2015

Note: Actual official high and low records may vary slightly from our data, if they occured in-between our weather recording intervals... More about our weather records

Advertising

Salinas weather history for previous 24 hours

 ConditionsComfort  
Time TempWeatherWind HumidityBarometerVisibility
10:53 PM
Fri, Apr 24
57 °FPassing clouds.5 mph64%30.08 "Hg10 mi
9:53 PM57 °FClear.8 mph67%30.09 "Hg10 mi
8:53 PM57 °FClear.7 mph64%30.09 "Hg10 mi
7:53 PM58 °FSunny.10 mph62%30.08 "Hg10 mi
6:53 PM59 °FSunny.12 mph58%30.08 "Hg10 mi
5:53 PM62 °FSunny.18 mph50%30.06 "Hg10 mi
3:53 PM64 °FSunny.16 mph45%30.06 "Hg10 mi
2:53 PM65 °FSunny.17 mph44%30.06 "Hg10 mi
1:53 PM64 °FSunny.16 mph50%30.07 "Hg10 mi
12:53 PM63 °FSunny.16 mph50%30.07 "Hg10 mi
11:53 AM63 °FSunny.18 mph50%30.07 "Hg10 mi
10:53 AM61 °FSunny.13 mph58%30.06 "Hg10 mi
9:53 AM60 °FScattered clouds.13 mph62%30.05 "Hg10 mi
8:53 AM59 °FPartly sunny.12 mph69%30.04 "Hg10 mi
7:53 AM58 °FPassing clouds.13 mph72%30.02 "Hg10 mi
6:53 AM56 °FOvercast.10 mph81%30.01 "Hg10 mi
5:53 AM56 °FLow clouds.9 mph81%29.99 "Hg10 mi
4:53 AM56 °FLow clouds.9 mph81%29.99 "Hg10 mi
4:04 AM55 °FPassing clouds.9 mph77%29.97 "Hg10 mi
3:53 AM55 °FPassing clouds.8 mph80%29.99 "Hg10 mi
2:53 AM57 °FOvercast.12 mph74%29.98 "Hg10 mi
2:03 AM55 °FOvercast.12 mph77%29.96 "Hg10 mi
1:53 AM57 °FOvercast.12 mph72%29.98 "Hg10 mi
12:53 AM56 °FOvercast.9 mph70%29.99 "Hg10 mi
Weather by CustomWeather, © 2015

See weather overviewHow to use our weather pages